OpenBCM V1.08-5-g2f4a (Linux)

Packet Radio Mailbox

IZ3LSV

[San Dona' di P. JN]

 Login: GUEST





  
LU9DCE > KEPS     02.01.18 17:56l 256 Lines 12689 Bytes #999 (0) @ LUNET
BID : 28548_LU9DCE
Read: GUEST
Subj: SAT TLE OF 2
Path: IZ3LSV<IQ2LB<IQ5KG<IK1NHL<CX2SA<XE1FH<LU9DCE
Sent: 180102/1601Z @:LU9DCE.TOR.BA.ARG.SOAM #:28548 [TORTUGUITAS] FBB7.0.8-beta
From: LU9DCE@LU9DCE.TOR.BA.ARG.SOAM
To  : KEPS@LUNET


            __    _  _  ___  ____   ___  ____    ____  ____  ____
           (  )  / )( \/ _ \(    \ / __)(  __)  (  _ \(  _ \/ ___)
           / (_/\) \/ (\__  )) D (( (__  ) _)    ) _ ( ) _ (\___ \
           \____/\____/(___/(____/ \___)(____)  (____/(____/(____/
               ESTACION DE PACKET RADIO - BUENOS AIRES (GF05OM)
                   BOLETINES INFORMATIVOS PROGRAMADOS (BIP)
                    LU9DCE@GMX.COM - RF 147070 @ 1200 BAUD
                        https://lu9dce.wordpress.com/
                      telnet lu9dce.dynv6.net port 6300

+------------------------------------------------------------------------------+
OSCAR 7
1  7530U 74089B   18001.86439093 -.00000048 +00000-0 -22543-4 0  9999
2  7530 101.6628 331.8491 0011896 298.5838 115.7535 12.53630349973527
OSCAR 11 (UoSAT 2)
1 14781U 84021B   18002.15224093  .00000108  00000-0  19518-4 0  9990
2 14781  97.6719  45.2451 0007046 267.1374  92.9034 14.82970485819834
OSCAR 19 (LUSAT)
1 20442U 90005G   18001.87994330 -.00000008 +00000-0 +13398-4 0  9996
2 20442 098.5952 301.5367 0010678 282.9283 077.0708 14.32882924460016
KITSAT B
1 22825U 93061C   18001.90566278 -.00000017 +00000-0 +11300-4 0  9999
2 22825 098.8408 335.2105 0009398 109.1632 251.0568 14.30018118265533
POSAT 1
1 22826U 93061D   18001.89097865  .00000002  00000-0  18538-4 0  9992
2 22826  98.8350 335.2540 0009975 100.1854 260.0453 14.30348748265988
RADIO ROSTO
1 23439U 94085A   18001.95013792 -.00000046 +00000-0 -99469-4 0  9996
2 23439 064.8157 257.6904 0162579 211.5230 232.1139 11.27566236947821
JAS 2
1 24278U 96046B   18001.55817614 -.00000025 +00000-0 +10272-4 0  9999
2 24278 098.5322 223.1226 0350309 183.0186 176.8842 13.53080704055455
TECHSAT 1B
1 25397U 98043D   18002.09529201 -.00000024  00000-0  86599-5 0  9998
2 25397  98.6331 305.4377 0002122 116.9908 243.1488 14.23637125 12094
ISS (ZARYA)
1 25544U 98067A   18002.27528979  .00001602  00000-0  31316-4 0  9997
2 25544  51.6406 125.8275 0002843 328.0292 229.8822 15.54244236 92715
PCSAT
1 26931U 01043C   18001.95352796 -.00000018 +00000-0 +24720-4 0  9994
2 26931 067.0520 298.3394 0005194 274.3302 085.7206 14.30489275848709
SAUDISAT 1C
1 27607U 02058C   18002.15042924  .00000031  00000-0  25043-4 0  9997
2 27607  64.5546 237.5257 0044958  10.6561 349.5483 14.75408666808463
CUTE-1
1 27844U 03031E   18001.91297897 +.00000064 +00000-0 +48497-4 0  9990
2 27844 098.6884 013.0139 0010593 129.1657 231.0464 14.22086198752528
CUBESAT XI 4
1 27848U 03031J   18001.96698992 +.00000043 +00000-0 +39613-4 0  9997
2 27848 098.6973 013.4063 0010371 138.0998 222.0974 14.21694070752419
MOZHAYETS 4
1 27939U 03042A   18002.20191150  .00000108  00000-0  27852-4 0  9996
2 27939  97.9651 145.8863 0012015 319.2625 164.2322 14.66645259762486
CUBESAT XI 5
1 28895U 05043F   18001.93380906 +.00000153 +00000-0 +38312-4 0  9992
2 28895 097.8850 160.3610 0015833 232.2073 127.7696 14.63493411649325
CUTE-1.7+APD II
1 32785U 08021C   18001.89243128 +.00000276 +00000-0 +35649-4 0  9999
2 32785 097.5542 021.9579 0012027 225.2951 134.7288 14.88038959524379
DELFI C3
1 32789U 08021G   18001.92261356 +.00001244 +00000-0 +90221-4 0  9993
2 32789 097.5350 060.7848 0013569 140.7966 219.4247 15.05640277526661
SEEDS
1 32791U 08021J   18001.64608872  .00000309  00000-0  37107-4 0  9998
2 32791  97.5476  26.6712 0012724 207.2706 152.7845 14.90434980524708
YUBELEINY
1 32953U 08025A   18002.24132766 -.00000006  00000-0 -11144-3 0  9991
2 32953  82.5038 115.8883 0019175 208.8826 151.1194 12.43080630436159
PRISM (HITOMI)
1 33493U 09002B   18002.17110224  .00000336  00000-0  35516-4 0  9998
2 33493  98.1455 257.7466 0015794 141.0508 219.1865 14.96019085485527
KKS-1 (KISEKI)
1 33499U 09002H   18001.94452487 +.00000144 +00000-0 +29337-4 0  9999
2 33499 098.3453 178.3870 0010437 100.7928 259.4455 14.75280321480243
SWISSCUBE
1 35932U 09051B   18002.21451822  .00000147  00000-0  44245-4 0  9998
2 35932  98.5209 149.6282 0007597   8.3637 351.7685 14.56106596439288
BEESAT
1 35933U 09051C   18001.91034114 +.00000125 +00000-0 +39212-4 0  9990
2 35933 098.5248 150.7572 0006131 024.8824 335.2667 14.56215797439260
ITUPSAT 1
1 35935U 09051E   18001.94027472 +.00000086 +00000-0 +30943-4 0  9992
2 35935 098.5360 151.0424 0008293 016.3506 343.7956 14.55399433439119
XIWANG-1 (HOPE-1)
1 36122U 09072B   18001.94154482 -.00000018 +00000-0 +64125-4 0  9991
2 36122 100.0859 024.2913 0007986 133.3980 226.7800 13.16342823386675
TISAT 1
1 36799U 10035E   18001.92163568 +.00000445 +00000-0 +51425-4 0  9997
2 36799 098.0838 134.0036 0013051 039.6784 320.5386 14.90656933405187
JUGNU
1 37839U 11058B   18002.14130698  .00000314  00000-0  25248-4 0  9991
2 37839  19.9624 324.1129 0018891 215.8353 249.0269 14.12605624321862
SRMSAT
1 37841U 11058D   18001.35958097 +.00000298 +00000-0 +18733-4 0  9999
2 37841 019.9734 014.6133 0012057 098.1040 021.7566 14.10595354321205
M-CUBED/EXP-1 PRIME
1 37855U 11061F   18001.91388349  .00000588  00000-0  38603-4 0  9997
2 37855 101.7205 339.3862 0177875 214.0791 144.8896 15.03957069336657
HORYU 2
1 38340U 12025D   18001.93155946 +.00000248 +00000-0 +44588-4 0  9997
2 38340 098.3749 017.8668 0012071 025.6223 334.5581 14.75477127292183
STRAND 1
1 39090U 13009E   18001.81421845  .00000057  00000-0  35257-4 0  9995
2 39090  98.5343 210.2050 0010274  73.1069 287.1242 14.35004745253969
BEESAT 3
1 39134U 13015E   18001.95308177 +.00001382 +00000-0 +75394-4 0  9996
2 39134 064.8643 304.4476 0029568 232.1660 127.6790 15.18684017259279
SOMP
1 39135U 13015F   18002.16900875  .00001382  00000-0  80432-4 0  9993
2 39135  64.8699 314.9895 0030489 256.2479 103.5252 15.16290264259474
BEESAT 2
1 39136U 13015G   18001.94938715 +.00001232 +00000-0 +73818-4 0  9997
2 39136 064.8705 318.0433 0032068 254.4711 105.2873 15.15776718259009
CUBEBUG 1
1 39153U 13018D   18002.23464943  .00000248  00000-0  39412-4 0  9997
2 39153  97.9828  98.4652 0018225 121.9638 238.3349 14.80318167253043
ZACUBE
1 39417U 13066B   18002.16453335  .00000264  00000-0  39831-4 0  9991
2 39417  97.6065  39.5021 0058604 340.2319  19.6623 14.80852908222226
TRITON 1
1 39427U 13066M   18002.01356611  .00000251  00000-0  47835-4 0  9994
2 39427  97.6362   9.0249 0115533  72.0344 289.3415 14.67590836220209
GOMX 1
1 39430U 13066Q   18001.99909578  .00000209  00000-0  46576-4 0  9994
2 39430  97.6797 351.0332 0152643 134.8370 226.5354 14.58998447218928
HUMSAT D
1 39433U 13066T   18002.16269663  .00000523  00000-0  57111-4 0  9997
2 39433  97.6284  64.1544 0029559 275.3783  84.4064 14.91706699223677
50 SAT
1 39436U 13066W   18001.79287842 +.00060423 +00000-0 +92524-3 0  9998
2 39436 097.7126 124.5945 0005640 079.9897 280.1992 15.54143027226141
CUBEBUG 2
1 39440U 13066AA  18001.60185986 +.00000288 +00000-0 +47172-4 0  9992
2 39440 097.6119 026.6519 0080981 017.5023 342.8949 14.75590172220158
FUNCUBE 1
1 39444U 13066AE  18001.63878125  .00000318  00000-0  45852-4 0  9990
2 39444  97.6079  40.3147 0057675 337.9536  21.9197 14.81613896220997
UWE-3
1 39446U 13066AG  18001.63903139  .00000272  00000-0  43001-4 0  9999
2 39446  97.6080  32.5005 0070226   0.0684   0.0525 14.78123323220514
SPROUT
1 39770U 14029E   18002.15379595  .00000756  00000-0  91331-4 0  9996
2 39770  97.8756 104.6710 0009979  42.5275 317.6700 14.86612699195694
UNISAT 6
1 40012U 14033C   18001.73875149  .00000246  00000-0  44329-4 0  9990
2 40012  97.8306 243.9319 0059017  16.5713 343.7407 14.73745115190183
DUCHIFAT 1
1 40021U 14033M   18001.80817135  .00000439  00000-0  51195-4 0  9992
2 40021  97.9173 280.2284 0013425  13.0010 347.1551 14.90157111192177
QB50P1
1 40025U 14033R   18001.72162970 +.00000329 +00000-0 +41338-4 0  9993
2 40025 097.9090 277.4289 0013022 018.7968 341.3727 14.88607954191519
CHUBUSAT 1
1 40300U 14070C   18002.14964286  .00000767  00000-0  37156-4 0  9996
2 40300  97.3813  83.2899 0021800 121.6893 296.5576 15.21323816175038
NUDT-PHONESAT
1 40900U 15049B   18002.05423259  .00002508  00000-0  11738-3 0  9991
2 40900  97.4419  12.3043 0012101 248.3164 111.6783 15.20611823126662
ZDPS 2A
1 40901U 15049C   18002.17704356  .00000992  00000-0  53869-4 0  9992
2 40901  97.4583  11.1619 0012253 253.0888 106.9002 15.16777163126492
ZDPS 2B
1 40902U 15049D   18002.19502644  .00000951  00000-0  52030-4 0  9995
2 40902  97.4469   9.4849 0012333 249.7695 110.2213 15.16588876126480
XW-2A
1 40903U 15049E   18002.17766296  .00002114  00000-0  55306-4 0  9991
2 40903  97.4034  35.2644 0012724 269.2897  90.6891 15.39845862128250
KAITUO 1A
1 40904U 15049F   18002.15289448  .00000578  00000-0  34613-4 0  9999
2 40904  97.4565   8.8888 0013196 253.3206 178.4507 15.14833687126362
OBJECT G
1 40905U 15049G   18002.18074247  .00000459  00000-0  28999-4 0  9990
2 40905  97.4548   7.2753 0014418 242.6127 117.3638 15.13818669126302
XW-2C
1 40906U 15049H   18002.14838428  .00000747  00000-0  43529-4 0  9992
2 40906  97.4573   8.7409 0013630 242.8951 117.0891 15.14956800126351
XW-2D
1 40907U 15049J   18002.18246045  .00000821  00000-0  47289-4 0  9995
2 40907  97.4545   8.4946 0013046 240.2728 119.7207 15.15090571126365
LILACSAT 2
1 40908U 15049K   18002.19287117  .00000391  00000-0  25533-4 0  9992
2 40908  97.4652   8.0700 0014671 240.7057 119.2709 15.13371493126268
XW-2F
1 40910U 15049M   18002.13522253  .00001382  00000-0  74944-4 0  9993
2 40910  97.4554   9.4635 0013802 236.4891 188.7227 15.16169696126299
XW-2B
1 40911U 15049N   18002.19418807  .00000796  00000-0  46063-4 0  9998
2 40911  97.4584   8.9770 0012946 240.7726 119.2212 15.15040951126261
